TimeCDT,TemperatureF,Dew PointF,Humidity,Sea Level PressureIn,VisibilityMPH,Wind Direction,Wind SpeedMPH,Gust SpeedMPH,PrecipitationIn,Events,Conditions,WindDirDegrees,DateUTC
12:15 AM,33.4,32.0,94,29.77,2.5,SE,9.2,-,N/A,,Overcast,140,2013-03-18 05:15:00
12:35 AM,33.3,32.0,95,29.73,2.0,SE,19.6,-,N/A,Snow,Light Snow,130,2013-03-18 05:35:00
12:55 AM,33.3,32.0,95,29.72,2.5,SE,13.8,18.4,N/A,Snow,Light Snow,130,2013-03-18 05:55:00
1:15 AM,33.4,32.2,95,29.72,5.0,SE,17.3,20.7,N/A,,Overcast,140,2013-03-18 06:15:00
1:35 AM,33.8,32.4,94,29.71,5.0,SSE,16.1,21.9,N/A,,Overcast,150,2013-03-18 06:35:00
1:55 AM,33.4,32.0,94,29.72,5.0,SSE,12.7,-,N/A,,Overcast,150,2013-03-18 06:55:00
2:15 AM,33.8,32.0,93,29.74,5.0,South,9.2,-,N/A,,Overcast,190,2013-03-18 07:15:00
2:35 AM,34.0,32.4,94,29.78,7.0,SW,9.2,-,N/A,,Overcast,230,2013-03-18 07:35:00
2:55 AM,34.3,32.5,93,29.79,7.0,WSW,6.9,-,N/A,,Overcast,250,2013-03-18 07:55:00
3:15 AM,34.7,32.5,92,29.78,5.0,SW,4.6,-,N/A,,Overcast,230,2013-03-18 08:15:00
3:35 AM,34.7,32.9,93,29.77,3.0,SSW,5.8,-,N/A,,Light Drizzle,210,2013-03-18 08:35:00
3:55 AM,34.7,32.9,93,29.76,3.0,SW,8.1,-,N/A,,Overcast,220,2013-03-18 08:55:00
4:15 AM,34.9,33.1,93,29.76,2.5,SW,6.9,-,N/A,,Overcast,230,2013-03-18 09:15:00
4:35 AM,35.1,33.6,94,29.74,2.5,SW,8.1,-,N/A,,Light Drizzle,230,2013-03-18 09:35:00
4:55 AM,35.4,33.8,94,29.75,3.0,WSW,9.2,-,N/A,,Overcast,240,2013-03-18 09:55:00
5:15 AM,35.8,34.2,94,29.75,5.0,WSW,8.1,-,N/A,,Overcast,240,2013-03-18 10:15:00
5:35 AM,36.7,34.7,93,29.76,7.0,West,15.0,18.4,N/A,,Overcast,280,2013-03-18 10:35:00
5:55 AM,36.7,31.5,81,29.77,10.0,WNW,17.3,25.3,N/A,,Mostly Cloudy,300,2013-03-18 10:55:00
6:15 AM,35.6,29.8,80,29.77,10.0,WNW,13.8,-,N/A,,Clear,300,2013-03-18 11:15:00
6:35 AM,35.1,28.8,78,29.78,10.0,NW,17.3,23.0,N/A,,Clear,310,2013-03-18 11:35:00
6:55 AM,34.7,28.2,77,29.79,10.0,WNW,12.7,-,N/A,,Clear,300,2013-03-18 11:55:00
7:15 AM,32.9,24.1,70,29.80,10.0,WNW,23.0,32.2,N/A,,Clear,300,2013-03-18 12:15:00
7:35 AM,32.0,23.7,71,29.81,10.0,NW,18.4,26.5,N/A,,Clear,310,2013-03-18 12:35:00
7:55 AM,31.6,22.3,68,29.82,10.0,NW,20.7,28.8,N/A,,Clear,310,2013-03-18 12:55:00
8:15 AM,31.5,21.7,67,29.82,10.0,NW,17.3,25.3,N/A,,Clear,310,2013-03-18 13:15:00
8:35 AM,32.0,19.9,61,29.82,10.0,NW,18.4,27.6,N/A,,Clear,320,2013-03-18 13:35:00
8:55 AM,32.0,20.7,63,29.83,10.0,NW,19.6,26.5,N/A,,Clear,320,2013-03-18 13:55:00
9:15 AM,32.4,20.3,61,29.83,10.0,NW,21.9,27.6,N/A,,Clear,310,2013-03-18 14:15:00
9:35 AM,32.9,19.8,59,29.84,10.0,NW,25.3,34.5,N/A,,Clear,320,2013-03-18 14:35:00
9:55 AM,32.9,19.8,59,29.85,10.0,NW,25.3,34.5,N/A,,Clear,310,2013-03-18 14:55:00
10:15 AM,33.4,20.3,59,29.86,10.0,WNW,27.6,34.5,N/A,,Clear,300,2013-03-18 15:15:00
10:35 AM,33.3,20.5,59,29.87,10.0,WNW,24.2,36.8,N/A,,Clear,300,2013-03-18 15:35:00
10:55 AM,34.0,20.8,59,29.88,10.0,WNW,25.3,40.3,N/A,,Clear,300,2013-03-18 15:55:00
11:15 AM,34.7,21.6,59,29.88,10.0,WNW,25.3,34.5,N/A,,Clear,300,2013-03-18 16:15:00
11:35 AM,35.2,20.5,55,29.88,10.0,WNW,28.8,40.3,N/A,,Clear,300,2013-03-18 16:35:00
11:55 AM,35.1,20.7,56,29.89,10.0,NW,25.3,34.5,N/A,,Scattered Clouds,320,2013-03-18 16:55:00
12:15 PM,34.7,20.1,55,29.90,10.0,NW,28.8,33.4,N/A,,Clear,310,2013-03-18 17:15:00
12:35 PM,35.2,18.9,51,29.90,10.0,NW,31.1,40.3,N/A,,Clear,310,2013-03-18 17:35:00
12:55 PM,35.8,18.9,50,29.91,10.0,WNW,25.3,41.4,N/A,,Clear,300,2013-03-18 17:55:00
1:15 PM,35.6,19.0,51,29.91,10.0,NW,24.2,35.7,N/A,,Scattered Clouds,310,2013-03-18 18:15:00
1:35 PM,36.5,18.7,49,29.92,10.0,WNW,23.0,36.8,N/A,,Scattered Clouds,300,2013-03-18 18:35:00
1:55 PM,36.9,18.1,47,29.92,10.0,WNW,28.8,36.8,N/A,,Scattered Clouds,290,2013-03-18 18:55:00
2:15 PM,37.8,19.8,48,29.92,10.0,WNW,26.5,35.7,N/A,,Scattered Clouds,300,2013-03-18 19:15:00
2:35 PM,36.9,16.9,44,29.92,10.0,WNW,28.8,39.1,N/A,,Scattered Clouds,300,2013-03-18 19:35:00
2:55 PM,37.4,17.6,45,29.92,10.0,WNW,27.6,35.7,N/A,,Clear,300,2013-03-18 19:55:00
3:15 PM,38.1,18.3,45,29.92,10.0,WNW,24.2,33.4,N/A,,Clear,300,2013-03-18 20:15:00
3:35 PM,37.6,17.2,44,29.92,10.0,NW,21.9,34.5,N/A,,Clear,320,2013-03-18 20:35:00
3:55 PM,37.6,16.2,42,29.93,10.0,WNW,23.0,32.2,N/A,,Clear,300,2013-03-18 20:55:00
4:15 PM,38.3,17.4,43,29.94,10.0,NW,20.7,32.2,N/A,,Clear,310,2013-03-18 21:15:00
4:35 PM,38.5,16.2,40,29.94,10.0,NW,21.9,32.2,N/A,,Clear,320,2013-03-18 21:35:00
4:55 PM,38.1,15.4,40,29.95,10.0,NW,24.2,32.2,N/A,,Clear,310,2013-03-18 21:55:00
5:15 PM,38.3,15.6,40,29.95,10.0,NW,21.9,31.1,N/A,,Clear,320,2013-03-18 22:15:00
5:35 PM,37.8,14.2,38,29.95,10.0,NW,21.9,34.5,N/A,,Clear,310,2013-03-18 22:35:00
5:55 PM,37.6,14.4,39,29.96,10.0,NW,21.9,28.8,N/A,,Clear,310,2013-03-18 22:55:00
6:15 PM,37.4,14.2,39,29.96,10.0,NW,20.7,27.6,N/A,,Clear,310,2013-03-18 23:15:00
6:35 PM,36.7,14.4,40,29.97,10.0,NW,19.6,25.3,N/A,,Clear,310,2013-03-18 23:35:00
6:55 PM,36.3,14.0,40,29.97,10.0,NW,17.3,27.6,N/A,,Clear,320,2013-03-18 23:55:00
7:15 PM,35.4,14.0,41,29.98,10.0,NW,15.0,23.0,N/A,,Clear,310,2013-03-19 00:15:00
7:35 PM,33.8,15.3,47,29.99,10.0,NW,10.4,-,N/A,,Clear,310,2013-03-19 00:35:00
7:55 PM,32.9,16.7,51,30.00,10.0,NW,11.5,-,N/A,,Clear,310,2013-03-19 00:55:00
8:15 PM,32.0,17.6,55,30.01,10.0,NW,9.2,-,N/A,,Clear,310,2013-03-19 01:15:00
8:35 PM,30.7,18.0,59,30.02,10.0,NW,8.1,-,N/A,,Clear,310,2013-03-19 01:35:00
8:55 PM,30.6,17.2,58,30.00,10.0,NNW,6.9,-,N/A,,Clear,330,2013-03-19 01:55:00
9:15 PM,29.5,18.1,63,30.00,10.0,NW,5.8,-,N/A,,Clear,320,2013-03-19 02:15:00
9:35 PM,28.2,18.1,66,30.02,10.0,NW,5.8,-,N/A,,Clear,310,2013-03-19 02:35:00
9:55 PM,28.6,18.7,66,30.02,10.0,WNW,8.1,-,N/A,,Clear,290,2013-03-19 02:55:00
10:15 PM,29.3,18.3,64,30.03,10.0,West,5.8,-,N/A,,Clear,270,2013-03-19 03:15:00
10:55 PM,28.9,18.0,64,30.04,10.0,West,5.8,-,N/A,,Clear,270,2013-03-19 03:55:00
11:15 PM,28.2,18.0,65,30.04,10.0,West,6.9,-,N/A,,Clear,270,2013-03-19 04:15:00
11:35 PM,28.6,18.5,66,30.04,10.0,West,6.9,-,N/A,,Clear,270,2013-03-19 04:35:00
11:55 PM,29.8,18.5,63,30.06,10.0,WNW,8.1,-,N/A,,Clear,290,2013-03-19 04:55:00